Year,Month,Day,Hour,Minute,Value (Times are PST for windspeed in km/hr)
2010,04,02,00,00,14.80
2010,04,02,00,01,11.80
2010,04,02,00,02,18.30
2010,04,02,00,03,16.90
2010,04,02,00,04,10.30
2010,04,02,00,05,15.90
2010,04,02,00,06,14.20
2010,04,02,00,07,13.90
2010,04,02,00,08,18.90
2010,04,02,00,09,21.20
2010,04,02,00,10,18.70
2010,04,02,00,11,20.40
2010,04,02,00,12,15.20
2010,04,02,00,13,15.70
2010,04,02,00,14,26.10
2010,04,02,00,15,23.50
2010,04,02,00,16,12.80
2010,04,02,00,17,14.70
2010,04,02,00,18,17.50
2010,04,02,00,19,18.60
2010,04,02,00,20,15.80
2010,04,02,00,21,10.30
2010,04,02,00,22,11.20
2010,04,02,00,23,13.70
2010,04,02,00,24,15.40
2010,04,02,00,25,16.40
2010,04,02,00,26,16.80
2010,04,02,00,27,20.50
2010,04,02,00,28,17.70
2010,04,02,00,29,12.00
2010,04,02,00,30,17.40
2010,04,02,00,31,17.90
2010,04,02,00,32,15.50
2010,04,02,00,33,10.30
2010,04,02,00,34,17.80
2010,04,02,00,35,13.00
2010,04,02,00,36,19.50
2010,04,02,00,37,13.50
2010,04,02,00,38,19.00
2010,04,02,00,39,19.20
2010,04,02,00,40,11.70
2010,04,02,00,41,15.30
2010,04,02,00,42,16.40
2010,04,02,00,43,12.70
2010,04,02,00,44,12.60
2010,04,02,00,45,15.90
2010,04,02,00,46,11.40
2010,04,02,00,47,14.10
2010,04,02,00,48,17.90
2010,04,02,00,49,12.40
2010,04,02,00,50,22.00
2010,04,02,00,51,14.50
2010,04,02,00,52,7.10
2010,04,02,00,53,11.80
2010,04,02,00,54,16.20
2010,04,02,00,55,16.90
2010,04,02,00,56,18.10
2010,04,02,00,57,14.80
2010,04,02,00,58,22.90
2010,04,02,00,59,11.90
2010,04,02,01,00,19.90
2010,04,02,01,01,15.40
2010,04,02,01,02,16.70
2010,04,02,01,03,10.30
2010,04,02,01,04,10.10
2010,04,02,01,05,14.40
2010,04,02,01,06,15.90
2010,04,02,01,07,12.90
2010,04,02,01,08,13.80
2010,04,02,01,09,13.20
2010,04,02,01,10,11.30
2010,04,02,01,11,11.00
2010,04,02,01,12,18.00
2010,04,02,01,13,16.80
2010,04,02,01,14,17.80
2010,04,02,01,15,14.40
2010,04,02,01,16,13.00
2010,04,02,01,17,17.20
2010,04,02,01,18,14.50
2010,04,02,01,19,14.50
2010,04,02,01,20,7.40
2010,04,02,01,21,11.60
2010,04,02,01,22,16.80
2010,04,02,01,23,17.20
2010,04,02,01,24,21.30
2010,04,02,01,25,12.60
2010,04,02,01,26,14.00
2010,04,02,01,27,21.90
2010,04,02,01,28,19.40
2010,04,02,01,29,18.00
2010,04,02,01,30,10.50
2010,04,02,01,31,14.80
2010,04,02,01,32,12.50
2010,04,02,01,33,15.30
2010,04,02,01,34,19.80
2010,04,02,01,35,18.70
2010,04,02,01,36,18.40
2010,04,02,01,37,18.40
2010,04,02,01,38,17.00
2010,04,02,01,39,19.40
2010,04,02,01,40,13.80
2010,04,02,01,41,13.60
2010,04,02,01,42,15.80
2010,04,02,01,43,20.40
2010,04,02,01,44,17.00
2010,04,02,01,45,19.10
2010,04,02,01,46,21.20
2010,04,02,01,47,21.20
2010,04,02,01,48,13.40
2010,04,02,01,49,13.80
2010,04,02,01,50,22.30
2010,04,02,01,51,13.60
2010,04,02,01,52,23.70
2010,04,02,01,53,21.10
2010,04,02,01,54,20.50
2010,04,02,01,55,18.30
2010,04,02,01,56,20.40
2010,04,02,01,57,13.20
2010,04,02,01,58,14.60
2010,04,02,01,59,13.70
2010,04,02,02,00,16.30
2010,04,02,02,01,16.50
2010,04,02,02,02,24.40
2010,04,02,02,03,13.60
2010,04,02,02,04,27.10
2010,04,02,02,05,16.90
2010,04,02,02,06,19.10
2010,04,02,02,07,25.10
2010,04,02,02,08,17.90
2010,04,02,02,09,21.30
2010,04,02,02,10,17.90
2010,04,02,02,11,25.60
2010,04,02,02,12,23.40
2010,04,02,02,13,18.80
2010,04,02,02,14,20.60
2010,04,02,02,15,20.80
2010,04,02,02,16,19.10
2010,04,02,02,17,15.80
2010,04,02,02,18,15.90
2010,04,02,02,19,22.50
2010,04,02,02,20,19.30
2010,04,02,02,21,24.10
2010,04,02,02,22,24.10
2010,04,02,02,23,17.40
2010,04,02,02,24,16.30
2010,04,02,02,25,15.30
2010,04,02,02,26,16.10
2010,04,02,02,27,21.20
2010,04,02,02,28,24.30
2010,04,02,02,29,22.30
2010,04,02,02,30,27.70
2010,04,02,02,31,18.70
2010,04,02,02,32,18.50
2010,04,02,02,33,17.50
2010,04,02,02,34,22.50
2010,04,02,02,35,17.40
2010,04,02,02,36,16.40
2010,04,02,02,37,16.70
2010,04,02,02,38,17.90
2010,04,02,02,39,13.00
2010,04,02,02,40,14.60
2010,04,02,02,41,16.60
2010,04,02,02,42,18.60
2010,04,02,02,43,15.80
2010,04,02,02,44,9.20
2010,04,02,02,45,11.40
2010,04,02,02,46,15.00
2010,04,02,02,47,15.50
2010,04,02,02,48,13.70
2010,04,02,02,49,22.60
2010,04,02,02,50,21.30
2010,04,02,02,51,14.70
2010,04,02,02,52,7.20
2010,04,02,02,53,9.70
2010,04,02,02,54,16.30
2010,04,02,02,55,9.90
2010,04,02,02,56,12.80
2010,04,02,02,57,18.70
2010,04,02,02,58,18.70
2010,04,02,02,59,13.80
2010,04,02,03,00,17.80
2010,04,02,03,01,18.50
2010,04,02,03,02,18.80
2010,04,02,03,03,18.10
2010,04,02,03,04,20.50
2010,04,02,03,05,17.50
2010,04,02,03,06,19.00
2010,04,02,03,07,18.60
2010,04,02,03,08,13.60
2010,04,02,03,09,13.10
2010,04,02,03,10,15.50
2010,04,02,03,11,16.00
2010,04,02,03,12,18.50
2010,04,02,03,13,20.20
2010,04,02,03,14,21.10
2010,04,02,03,15,16.30
2010,04,02,03,16,9.80
2010,04,02,03,17,14.30
2010,04,02,03,18,19.50
2010,04,02,03,19,18.70
2010,04,02,03,20,18.20
2010,04,02,03,21,16.00
2010,04,02,03,22,20.40
2010,04,02,03,23,11.80
2010,04,02,03,24,9.40
2010,04,02,03,25,11.30
2010,04,02,03,26,10.80
2010,04,02,03,27,17.20
2010,04,02,03,28,17.50
2010,04,02,03,29,16.60
2010,04,02,03,30,17.60
2010,04,02,03,31,13.50
2010,04,02,03,32,15.70
2010,04,02,03,33,11.30
2010,04,02,03,34,11.30
2010,04,02,03,35,15.60
2010,04,02,03,36,14.00
2010,04,02,03,37,13.00
2010,04,02,03,38,14.90
2010,04,02,03,39,12.30
2010,04,02,03,40,12.80
2010,04,02,03,41,14.20
2010,04,02,03,42,14.70
2010,04,02,03,43,16.90
2010,04,02,03,44,10.80
2010,04,02,03,45,10.90
2010,04,02,03,46,8.90
2010,04,02,03,47,6.90
2010,04,02,03,48,11.70
2010,04,02,03,49,9.40
2010,04,02,03,50,11.30
2010,04,02,03,51,8.60
2010,04,02,03,52,13.60
2010,04,02,03,53,9.50
2010,04,02,03,54,17.70
2010,04,02,03,55,18.70
2010,04,02,03,56,18.40
2010,04,02,03,57,19.70
2010,04,02,03,58,11.90
2010,04,02,03,59,13.70
2010,04,02,04,00,15.80
2010,04,02,04,01,19.10
2010,04,02,04,02,19.10
2010,04,02,04,03,12.40
2010,04,02,04,04,14.60
2010,04,02,04,05,12.70
2010,04,02,04,06,7.90
2010,04,02,04,07,14.50
2010,04,02,04,08,19.20
2010,04,02,04,09,12.50
2010,04,02,04,10,10.70
2010,04,02,04,11,19.40
2010,04,02,04,12,15.60
2010,04,02,04,13,18.10
2010,04,02,04,14,11.20
2010,04,02,04,15,10.40
2010,04,02,04,16,8.40
2010,04,02,04,17,12.30
2010,04,02,04,18,8.70
2010,04,02,04,19,11.70
2010,04,02,04,20,10.90
2010,04,02,04,21,13.90
2010,04,02,04,22,11.30
2010,04,02,04,23,14.80
2010,04,02,04,24,18.70
2010,04,02,04,25,16.10
2010,04,02,04,26,11.70
2010,04,02,04,27,9.00
2010,04,02,04,28,8.90
2010,04,02,04,29,12.90
2010,04,02,04,30,11.80
2010,04,02,04,31,17.60
2010,04,02,04,32,14.60
2010,04,02,04,33,13.10
2010,04,02,04,34,13.80
2010,04,02,04,35,10.20
2010,04,02,04,36,11.40
2010,04,02,04,37,13.60
2010,04,02,04,38,13.20
2010,04,02,04,39,18.60
2010,04,02,04,40,18.30
2010,04,02,04,41,16.80
2010,04,02,04,42,14.10
2010,04,02,04,43,11.60
2010,04,02,04,44,10.80
2010,04,02,04,45,13.10
2010,04,02,04,46,9.10
2010,04,02,04,47,17.00
2010,04,02,04,48,18.60
2010,04,02,04,49,12.10
2010,04,02,04,50,8.70
2010,04,02,04,51,16.10
2010,04,02,04,52,15.20
2010,04,02,04,53,10.80
2010,04,02,04,54,15.20
2010,04,02,04,55,12.00
2010,04,02,04,56,16.30
2010,04,02,04,57,12.40
2010,04,02,04,58,9.70
2010,04,02,04,59,15.40
2010,04,02,05,00,17.10
2010,04,02,05,01,12.90
2010,04,02,05,02,14.60
2010,04,02,05,03,13.00
2010,04,02,05,04,10.20
2010,04,02,05,05,11.70
2010,04,02,05,06,13.60
2010,04,02,05,07,10.20
2010,04,02,05,08,15.80
2010,04,02,05,09,13.30
2010,04,02,05,10,12.10
2010,04,02,05,11,10.00
2010,04,02,05,12,12.90
2010,04,02,05,13,12.60
2010,04,02,05,14,14.20
2010,04,02,05,15,12.80
2010,04,02,05,16,17.20
2010,04,02,05,17,15.40
2010,04,02,05,18,11.40
2010,04,02,05,19,14.10
2010,04,02,05,20,12.90
2010,04,02,05,21,12.40
2010,04,02,05,22,17.10
2010,04,02,05,23,16.30
2010,04,02,05,24,17.60
2010,04,02,05,25,14.90
2010,04,02,05,26,12.30
2010,04,02,05,27,18.80
2010,04,02,05,28,16.80
2010,04,02,05,29,12.70
2010,04,02,05,30,16.40
2010,04,02,05,31,12.80
2010,04,02,05,32,10.60
2010,04,02,05,33,19.50
2010,04,02,05,34,19.80
2010,04,02,05,35,20.40
2010,04,02,05,36,13.60
2010,04,02,05,37,18.70
2010,04,02,05,38,16.50
2010,04,02,05,39,16.00
2010,04,02,05,40,21.50
2010,04,02,05,41,15.50
2010,04,02,05,42,26.50
2010,04,02,05,43,15.60
2010,04,02,05,44,18.90
2010,04,02,05,45,9.60
2010,04,02,05,46,13.40
2010,04,02,05,47,24.40
2010,04,02,05,48,14.70
2010,04,02,05,49,18.10
2010,04,02,05,50,14.60
2010,04,02,05,51,18.70
2010,04,02,05,52,16.50
2010,04,02,05,53,20.00
2010,04,02,05,54,16.70
2010,04,02,05,55,23.40
2010,04,02,05,56,21.20
2010,04,02,05,57,21.00
2010,04,02,05,58,21.20
2010,04,02,05,59,22.50
2010,04,02,06,00,21.90
2010,04,02,06,01,15.80
2010,04,02,06,02,21.00
2010,04,02,06,03,20.20
2010,04,02,06,04,24.20
2010,04,02,06,05,24.30
2010,04,02,06,06,21.10
2010,04,02,06,07,24.40
2010,04,02,06,08,21.90
2010,04,02,06,09,22.50
2010,04,02,06,10,15.90
2010,04,02,06,11,25.70
2010,04,02,06,12,18.90
2010,04,02,06,13,12.30
2010,04,02,06,14,18.60
2010,04,02,06,15,23.50
2010,04,02,06,16,16.90
2010,04,02,06,17,29.10
2010,04,02,06,18,23.60
2010,04,02,06,19,26.60
2010,04,02,06,20,24.90
2010,04,02,06,21,29.50
2010,04,02,06,22,21.60
2010,04,02,06,23,25.50
2010,04,02,06,24,30.80
2010,04,02,06,25,28.20
2010,04,02,06,26,23.30
2010,04,02,06,27,16.00
2010,04,02,06,28,22.40
2010,04,02,06,29,19.20
2010,04,02,06,30,25.00
2010,04,02,06,31,27.20
2010,04,02,06,32,21.30
2010,04,02,06,33,27.20
2010,04,02,06,34,26.10
2010,04,02,06,35,18.10
2010,04,02,06,36,24.40
2010,04,02,06,37,23.50
2010,04,02,06,38,22.80
2010,04,02,06,39,17.60
2010,04,02,06,40,17.40
2010,04,02,06,41,20.10
2010,04,02,06,42,29.10
2010,04,02,06,43,22.80
2010,04,02,06,44,23.20
2010,04,02,06,45,18.90
2010,04,02,06,46,20.30
2010,04,02,06,47,25.20
2010,04,02,06,48,18.40
2010,04,02,06,49,20.20
2010,04,02,06,50,26.30
2010,04,02,06,51,22.40
2010,04,02,06,52,20.00
2010,04,02,06,53,16.60
2010,04,02,06,54,16.90
2010,04,02,06,55,20.50
2010,04,02,06,56,16.20
2010,04,02,06,57,20.50
2010,04,02,06,58,22.40
2010,04,02,06,59,23.70
2010,04,02,07,00,27.80
2010,04,02,07,01,29.90
2010,04,02,07,02,29.60
2010,04,02,07,03,29.40
2010,04,02,07,04,34.50
2010,04,02,07,05,30.10
2010,04,02,07,06,27.30
2010,04,02,07,07,27.00
2010,04,02,07,08,30.70
2010,04,02,07,09,28.20
2010,04,02,07,10,22.60
2010,04,02,07,11,29.50
2010,04,02,07,12,24.20
2010,04,02,07,13,27.90
2010,04,02,07,14,25.10
2010,04,02,07,15,28.10
2010,04,02,07,16,30.80
2010,04,02,07,17,31.50
2010,04,02,07,18,29.80
2010,04,02,07,19,26.90
2010,04,02,07,20,19.50
2010,04,02,07,21,25.20
2010,04,02,07,22,26.30
2010,04,02,07,23,29.90
2010,04,02,07,24,25.30
2010,04,02,07,25,35.90
2010,04,02,07,26,29.80
2010,04,02,07,27,33.10
2010,04,02,07,28,29.50
2010,04,02,07,29,25.70
2010,04,02,07,30,30.30
2010,04,02,07,31,27.30
2010,04,02,07,32,27.00
2010,04,02,07,33,35.90
2010,04,02,07,34,34.60
2010,04,02,07,35,38.30
2010,04,02,07,36,35.40
2010,04,02,07,37,41.70
2010,04,02,07,38,32.40
2010,04,02,07,39,40.60
2010,04,02,07,40,35.70
2010,04,02,07,41,29.90
2010,04,02,07,42,29.00
2010,04,02,07,43,38.00
2010,04,02,07,44,29.10
2010,04,02,07,45,31.30
2010,04,02,07,46,26.50
2010,04,02,07,47,22.10
2010,04,02,07,48,25.30
2010,04,02,07,49,40.70
2010,04,02,07,50,34.90
2010,04,02,07,51,26.50
2010,04,02,07,52,35.20
2010,04,02,07,53,26.80
2010,04,02,07,54,25.70
2010,04,02,07,55,29.10
2010,04,02,07,56,21.00
2010,04,02,07,57,28.00
2010,04,02,07,58,19.50
2010,04,02,07,59,18.40
2010,04,02,08,00,31.10
2010,04,02,08,01,29.40
2010,04,02,08,02,29.90
2010,04,02,08,03,26.10
2010,04,02,08,04,28.60
2010,04,02,08,05,27.00
2010,04,02,08,06,30.30
2010,04,02,08,07,29.70
2010,04,02,08,08,24.80
2010,04,02,08,09,26.60
2010,04,02,08,10,27.30
2010,04,02,08,11,25.70
2010,04,02,08,12,31.50
2010,04,02,08,13,32.70
2010,04,02,08,14,28.80
2010,04,02,08,15,25.30
2010,04,02,08,16,35.70
2010,04,02,08,17,35.40
2010,04,02,08,18,39.20
2010,04,02,08,19,35.20
2010,04,02,08,20,27.40
2010,04,02,08,21,35.20
2010,04,02,08,22,26.50
2010,04,02,08,23,29.10
2010,04,02,08,24,25.70
2010,04,02,08,25,33.10
2010,04,02,08,26,31.90
2010,04,02,08,27,28.40
2010,04,02,08,28,25.40
2010,04,02,08,29,26.30
2010,04,02,08,30,28.90
2010,04,02,08,31,32.60
2010,04,02,08,32,23.50
2010,04,02,08,33,30.10
2010,04,02,08,34,30.60
2010,04,02,08,35,35.40
2010,04,02,08,36,33.80
2010,04,02,08,37,32.40
2010,04,02,08,38,31.60
2010,04,02,08,39,33.70
2010,04,02,08,40,34.10
2010,04,02,08,41,32.50
2010,04,02,08,42,17.10
2010,04,02,08,43,28.00
2010,04,02,08,44,28.10
2010,04,02,08,45,17.70
2010,04,02,08,46,32.70
2010,04,02,08,47,20.60
2010,04,02,08,48,24.70
2010,04,02,08,49,28.00
2010,04,02,08,50,25.70
2010,04,02,08,51,22.90
2010,04,02,08,52,23.30
2010,04,02,08,53,24.50
2010,04,02,08,54,26.00
2010,04,02,08,55,20.40
2010,04,02,08,56,28.50
2010,04,02,08,57,29.30
2010,04,02,08,58,25.00
2010,04,02,08,59,28.30
2010,04,02,09,00,33.00
2010,04,02,09,01,32.50
2010,04,02,09,02,32.00
2010,04,02,09,03,29.60
2010,04,02,09,04,29.10
2010,04,02,09,05,24.90
2010,04,02,09,06,24.80
2010,04,02,09,07,24.80
2010,04,02,09,08,26.80
2010,04,02,09,09,32.30
2010,04,02,09,10,32.50
2010,04,02,09,11,23.60
2010,04,02,09,12,42.00
2010,04,02,09,13,31.30
2010,04,02,09,14,29.60
2010,04,02,09,15,23.50
2010,04,02,09,16,21.50
2010,04,02,09,17,20.50
2010,04,02,09,18,23.00
2010,04,02,09,19,23.80
2010,04,02,09,20,29.20
2010,04,02,09,21,19.30
2010,04,02,09,22,26.80
2010,04,02,09,23,21.80
2010,04,02,09,24,19.60
2010,04,02,09,25,24.70
2010,04,02,09,26,32.30
2010,04,02,09,27,27.50
2010,04,02,09,28,21.50
2010,04,02,09,29,28.50
2010,04,02,09,30,30.80
2010,04,02,09,31,34.80
2010,04,02,09,32,37.20
2010,04,02,09,33,24.70
2010,04,02,09,34,26.60
2010,04,02,09,35,27.70
2010,04,02,09,36,14.20
2010,04,02,09,37,25.60
2010,04,02,09,38,24.60
2010,04,02,09,39,26.20
2010,04,02,09,40,28.40
2010,04,02,09,41,23.50
2010,04,02,09,42,23.50
2010,04,02,09,43,22.00
2010,04,02,09,44,22.20
2010,04,02,09,45,28.60
2010,04,02,09,46,20.00
2010,04,02,09,47,25.90
2010,04,02,09,48,18.70
2010,04,02,09,49,14.00
2010,04,02,09,50,21.60
2010,04,02,09,51,16.10
2010,04,02,09,52,21.60
2010,04,02,09,53,14.40
2010,04,02,09,54,18.10
2010,04,02,09,55,30.70
2010,04,02,09,56,22.10
2010,04,02,09,57,21.20
2010,04,02,09,58,21.00
2010,04,02,09,59,23.20
2010,04,02,10,00,17.40
2010,04,02,10,01,26.40
2010,04,02,10,02,23.20
2010,04,02,10,03,28.90
2010,04,02,10,04,18.50
2010,04,02,10,05,13.60
2010,04,02,10,06,22.50
2010,04,02,10,07,27.00
2010,04,02,10,08,21.90
2010,04,02,10,09,23.40
2010,04,02,10,10,23.60
2010,04,02,10,11,23.10
2010,04,02,10,12,22.50
2010,04,02,10,13,17.60
2010,04,02,10,14,18.00
2010,04,02,10,15,14.60
2010,04,02,10,16,18.70
2010,04,02,10,17,22.60
2010,04,02,10,18,16.80
2010,04,02,10,19,18.30
2010,04,02,10,20,21.30
2010,04,02,10,21,19.30
2010,04,02,10,22,21.00
2010,04,02,10,23,18.20
2010,04,02,10,24,22.90
2010,04,02,10,25,16.90
2010,04,02,10,26,15.80
2010,04,02,10,27,20.20
2010,04,02,10,28,24.80
2010,04,02,10,29,25.20
2010,04,02,10,30,23.70
2010,04,02,10,31,23.20
2010,04,02,10,32,29.90
2010,04,02,10,33,28.60
2010,04,02,10,34,19.00
2010,04,02,10,35,34.30
2010,04,02,10,36,31.20
2010,04,02,10,37,26.60
2010,04,02,10,38,25.20
2010,04,02,10,39,23.00
2010,04,02,10,40,18.50
2010,04,02,10,41,19.90
2010,04,02,10,42,20.50
2010,04,02,10,43,24.20
2010,04,02,10,44,26.80
2010,04,02,10,45,22.30
2010,04,02,10,46,27.90
2010,04,02,10,47,31.30
2010,04,02,10,48,37.80
2010,04,02,10,49,27.20
2010,04,02,10,50,34.00
2010,04,02,10,51,27.40
2010,04,02,10,52,25.20
2010,04,02,10,53,22.60
2010,04,02,10,54,21.50
2010,04,02,10,55,28.00
2010,04,02,10,56,29.60
2010,04,02,10,57,28.80
2010,04,02,10,58,26.00
2010,04,02,10,59,33.00
2010,04,02,11,00,18.10
2010,04,02,11,01,27.40
2010,04,02,11,02,25.60
2010,04,02,11,03,32.90
2010,04,02,11,04,28.50
2010,04,02,11,05,26.30
2010,04,02,11,06,33.90
2010,04,02,11,07,29.60
2010,04,02,11,08,27.90
2010,04,02,11,09,23.80
2010,04,02,11,10,23.30
2010,04,02,11,11,26.70
2010,04,02,11,12,26.60
2010,04,02,11,13,25.70
2010,04,02,11,14,20.00
2010,04,02,11,15,21.10
2010,04,02,11,16,19.10
2010,04,02,11,17,17.70
2010,04,02,11,18,22.20
2010,04,02,11,19,29.50
2010,04,02,11,20,18.30
2010,04,02,11,21,25.40
2010,04,02,11,22,28.60
2010,04,02,11,23,23.70
2010,04,02,11,24,18.30
2010,04,02,11,25,18.70
2010,04,02,11,26,23.50
2010,04,02,11,27,24.60
2010,04,02,11,28,17.50
2010,04,02,11,29,23.30
2010,04,02,11,30,23.00
2010,04,02,11,31,25.60
2010,04,02,11,32,23.00
2010,04,02,11,33,18.30
2010,04,02,11,34,19.20
2010,04,02,11,35,24.60
2010,04,02,11,36,22.60
2010,04,02,11,37,25.20
2010,04,02,11,38,24.50
2010,04,02,11,39,28.70
2010,04,02,11,40,23.10
2010,04,02,11,41,29.00
2010,04,02,11,42,38.00
2010,04,02,11,43,20.00
2010,04,02,11,44,24.00
2010,04,02,11,45,21.80
2010,04,02,11,46,25.30
2010,04,02,11,47,20.50
2010,04,02,11,48,22.10
2010,04,02,11,49,20.60
2010,04,02,11,50,23.50
2010,04,02,11,51,20.60
2010,04,02,11,52,22.90
2010,04,02,11,53,25.90
2010,04,02,11,54,23.50
2010,04,02,11,55,30.50
2010,04,02,11,56,23.70
2010,04,02,11,57,27.90
2010,04,02,11,58,20.80
2010,04,02,11,59,20.90
2010,04,02,12,00,24.10
2010,04,02,12,01,20.10
2010,04,02,12,02,23.60
2010,04,02,12,03,20.10
2010,04,02,12,04,24.80
2010,04,02,12,05,17.80
2010,04,02,12,06,27.90
2010,04,02,12,07,34.10
2010,04,02,12,08,34.60
2010,04,02,12,09,28.50
2010,04,02,12,10,26.20
2010,04,02,12,11,22.90
2010,04,02,12,12,35.10
2010,04,02,12,13,31.90
2010,04,02,12,17,21.40
2010,04,02,12,18,19.20
2010,04,02,12,19,25.50
2010,04,02,12,20,20.60
2010,04,02,12,21,22.40
2010,04,02,12,22,27.40
2010,04,02,12,23,29.00
2010,04,02,12,24,21.30
2010,04,02,12,25,25.60
2010,04,02,12,26,27.60
2010,04,02,12,27,20.20
2010,04,02,12,28,23.70
2010,04,02,12,29,33.70
2010,04,02,12,30,32.50
2010,04,02,12,31,30.10
2010,04,02,12,32,38.10
2010,04,02,12,33,28.30
2010,04,02,12,34,23.30
2010,04,02,12,35,27.00
2010,04,02,12,36,20.90
2010,04,02,12,37,27.30
2010,04,02,12,38,26.20
2010,04,02,12,39,18.90
2010,04,02,12,40,23.40
2010,04,02,12,41,16.70
2010,04,02,12,42,29.60
2010,04,02,12,43,37.10
2010,04,02,12,44,28.50
2010,04,02,12,45,21.50
2010,04,02,12,46,27.20
2010,04,02,12,47,25.80
2010,04,02,12,48,24.70
2010,04,02,12,49,24.60
2010,04,02,12,50,22.70
2010,04,02,12,51,28.20
2010,04,02,12,52,32.40
2010,04,02,12,53,25.10
2010,04,02,12,54,27.60
2010,04,02,12,55,23.30
2010,04,02,12,56,30.40
2010,04,02,12,57,21.60
2010,04,02,12,58,23.90
2010,04,02,12,59,16.30
2010,04,02,13,00,23.30
2010,04,02,13,01,24.50
2010,04,02,13,02,25.80
2010,04,02,13,03,16.90
2010,04,02,13,04,20.20
2010,04,02,13,05,20.50
2010,04,02,13,06,18.30
2010,04,02,13,07,18.00
2010,04,02,13,08,26.30
2010,04,02,13,09,28.40
2010,04,02,13,10,24.70
2010,04,02,13,11,22.40
2010,04,02,13,12,16.00
2010,04,02,13,13,14.10
2010,04,02,13,14,21.50
2010,04,02,13,15,22.80
2010,04,02,13,16,35.80
2010,04,02,13,17,28.20
2010,04,02,13,18,28.00
2010,04,02,13,19,21.40
2010,04,02,13,20,23.40
2010,04,02,13,21,23.40
2010,04,02,13,22,15.20
2010,04,02,13,23,13.30
2010,04,02,13,24,21.10
2010,04,02,13,25,25.70
2010,04,02,13,26,25.40
2010,04,02,13,27,31.40
2010,04,02,13,28,30.10
2010,04,02,13,29,20.70
2010,04,02,13,30,27.40
2010,04,02,13,31,19.80
2010,04,02,13,32,18.20
2010,04,02,13,33,17.70
2010,04,02,13,34,18.30
2010,04,02,13,35,14.30
2010,04,02,13,36,13.60
2010,04,02,13,37,20.40
2010,04,02,13,38,33.30
2010,04,02,13,39,23.10
2010,04,02,13,40,21.30
2010,04,02,13,41,36.10
2010,04,02,13,42,30.10
2010,04,02,13,43,23.70
2010,04,02,13,44,34.80
2010,04,02,13,45,34.40
2010,04,02,13,46,25.20
2010,04,02,13,47,21.60
2010,04,02,13,48,21.40
2010,04,02,13,49,28.50
2010,04,02,13,50,36.90
2010,04,02,13,51,25.70
2010,04,02,13,52,34.80
2010,04,02,13,53,24.60
2010,04,02,13,54,29.10
2010,04,02,13,55,31.70
2010,04,02,13,56,24.60
2010,04,02,13,57,29.60
2010,04,02,13,58,27.40
2010,04,02,13,59,32.80
2010,04,02,14,00,27.90
2010,04,02,14,01,27.40
2010,04,02,14,02,29.80
2010,04,02,14,03,25.10
2010,04,02,14,04,30.10
2010,04,02,14,05,24.80
2010,04,02,14,06,31.60
2010,04,02,14,07,29.40
2010,04,02,14,08,36.10
2010,04,02,14,09,27.10
2010,04,02,14,10,24.50
2010,04,02,14,11,26.20
2010,04,02,14,12,21.20
2010,04,02,14,13,16.90
2010,04,02,14,14,20.40
2010,04,02,14,15,31.80
2010,04,02,14,16,34.60
2010,04,02,14,17,27.20
2010,04,02,14,18,16.00
2010,04,02,14,19,23.70
2010,04,02,14,20,33.00
2010,04,02,14,21,24.50
2010,04,02,14,22,29.90
2010,04,02,14,23,26.50
2010,04,02,14,24,30.10
2010,04,02,14,25,22.50
2010,04,02,14,26,28.60
2010,04,02,14,27,23.70
2010,04,02,14,28,22.10
2010,04,02,14,29,26.40
2010,04,02,14,30,23.50
2010,04,02,14,31,31.30
2010,04,02,14,32,21.70
2010,04,02,14,33,26.00
2010,04,02,14,34,19.90
2010,04,02,14,35,15.00
2010,04,02,14,36,19.70
2010,04,02,14,37,20.70
2010,04,02,14,38,31.10
2010,04,02,14,39,32.10
2010,04,02,14,40,25.60
2010,04,02,14,41,21.40
2010,04,02,14,42,19.80
2010,04,02,14,43,20.00
2010,04,02,14,44,14.30
2010,04,02,14,45,18.70
2010,04,02,14,46,19.60
2010,04,02,14,47,27.70
2010,04,02,14,48,28.00
2010,04,02,14,49,21.60
2010,04,02,14,50,20.50
2010,04,02,14,51,25.90
2010,04,02,14,52,20.90
2010,04,02,14,53,28.40
2010,04,02,14,54,21.70
2010,04,02,14,55,20.00
2010,04,02,14,56,27.90
2010,04,02,14,57,16.80
2010,04,02,14,58,19.10
2010,04,02,14,59,24.10
2010,04,02,15,00,16.30
2010,04,02,15,01,26.80
2010,04,02,15,02,22.40
2010,04,02,15,03,21.00
2010,04,02,15,04,17.10
2010,04,02,15,05,19.70
2010,04,02,15,06,28.20
2010,04,02,15,07,19.90
2010,04,02,15,08,26.90
2010,04,02,15,09,18.40
2010,04,02,15,10,21.80
2010,04,02,15,11,11.90
2010,04,02,15,12,23.00
2010,04,02,15,13,12.50
2010,04,02,15,14,17.50
2010,04,02,15,15,18.30
2010,04,02,15,16,28.40
2010,04,02,15,17,20.50
2010,04,02,15,18,17.70
2010,04,02,15,19,18.30
2010,04,02,15,20,10.00
2010,04,02,15,21,14.70
2010,04,02,15,22,12.10
2010,04,02,15,23,22.20
2010,04,02,15,24,16.20
2010,04,02,15,25,10.30
2010,04,02,15,26,13.80
2010,04,02,15,27,17.70
2010,04,02,15,28,18.90
2010,04,02,15,29,15.50
2010,04,02,15,30,12.30
2010,04,02,15,31,10.50
2010,04,02,15,32,11.30
2010,04,02,15,33,19.20
2010,04,02,15,34,12.00
2010,04,02,15,35,8.50
2010,04,02,15,36,16.60
2010,04,02,15,37,18.50
2010,04,02,15,38,9.20
2010,04,02,15,39,11.90
2010,04,02,15,40,14.10
2010,04,02,15,41,14.90
2010,04,02,15,42,14.10
2010,04,02,15,43,14.70
2010,04,02,15,44,16.30
2010,04,02,15,45,18.70
2010,04,02,15,46,16.80
2010,04,02,15,47,14.80
2010,04,02,15,48,13.10
2010,04,02,15,49,11.30
2010,04,02,15,50,15.80
2010,04,02,15,51,14.50
2010,04,02,15,52,17.30
2010,04,02,15,53,9.50
2010,04,02,15,54,13.90
2010,04,02,15,55,8.60
2010,04,02,15,56,8.60
2010,04,02,15,57,8.20
2010,04,02,15,58,16.10
2010,04,02,15,59,18.00
2010,04,02,16,00,15.80
2010,04,02,16,01,14.50
2010,04,02,16,02,12.60
2010,04,02,16,03,12.10
2010,04,02,16,04,18.60
2010,04,02,16,05,13.60
2010,04,02,16,06,18.70
2010,04,02,16,07,12.70
2010,04,02,16,08,14.40
2010,04,02,16,09,23.50
2010,04,02,16,10,12.30
2010,04,02,16,11,14.10
2010,04,02,16,12,20.80
2010,04,02,16,13,16.10
2010,04,02,16,14,16.90
2010,04,02,16,15,13.20
2010,04,02,16,16,14.80
2010,04,02,16,17,16.90
2010,04,02,16,18,15.80
2010,04,02,16,19,17.20
2010,04,02,16,20,15.10
2010,04,02,16,21,9.70
2010,04,02,16,22,14.00
2010,04,02,16,23,11.90
2010,04,02,16,24,22.70
2010,04,02,16,25,18.90
2010,04,02,16,26,18.80
2010,04,02,16,27,8.90
2010,04,02,16,28,21.30
2010,04,02,16,29,14.80
2010,04,02,16,30,15.70
2010,04,02,16,31,16.30
2010,04,02,16,32,13.10
2010,04,02,16,33,27.20
2010,04,02,16,34,13.80
2010,04,02,16,35,16.30
2010,04,02,16,36,18.00
2010,04,02,16,37,14.40
2010,04,02,16,38,21.70
2010,04,02,16,39,20.90
2010,04,02,16,40,15.70
2010,04,02,16,41,20.50
2010,04,02,16,42,14.60
2010,04,02,16,43,27.80
2010,04,02,16,44,22.60
2010,04,02,16,45,24.90
2010,04,02,16,46,27.00
2010,04,02,16,47,30.50
2010,04,02,16,48,31.20
2010,04,02,16,49,29.00
2010,04,02,16,50,11.70
2010,04,02,16,51,31.70
2010,04,02,16,52,26.50
2010,04,02,16,53,21.50
2010,04,02,16,54,15.40
2010,04,02,16,55,25.10
2010,04,02,16,56,19.10
2010,04,02,16,57,25.60
2010,04,02,16,58,28.60
2010,04,02,16,59,17.00
2010,04,02,17,00,17.20
2010,04,02,17,01,24.60
2010,04,02,17,02,13.90
2010,04,02,17,03,22.40
2010,04,02,17,04,15.30
2010,04,02,17,05,15.80
2010,04,02,17,06,20.40
2010,04,02,17,07,19.70
2010,04,02,17,08,19.20
2010,04,02,17,09,17.10
2010,04,02,17,10,26.30
2010,04,02,17,11,30.70
2010,04,02,17,12,22.00
2010,04,02,17,13,16.10
2010,04,02,17,14,17.20
2010,04,02,17,15,23.50
2010,04,02,17,16,15.50
2010,04,02,17,17,18.50
2010,04,02,17,18,24.10
2010,04,02,17,19,20.20
2010,04,02,17,20,16.90
2010,04,02,17,21,26.20
2010,04,02,17,24,31.70
2010,04,02,17,25,25.90